Time,TemperatureF,DewpointF,PressureIn,WindDirection,WindDirectionDegrees,WindSpeedMPH,WindSpeedGustMPH,Humidity,HourlyPrecipIn,Conditions,Clouds,dailyrainin,SoftwareType,DateUTC
2013-07-26 00:04:00,81.4,69.4,29.94,ESE,120,2.0,4.0,67,0.00,,,0.00,Wunderground v.1.15,2013-07-26 05:04:00,
2013-07-26 00:10:00,81.2,69.2,29.95,ESE,120,2.0,2.0,67,0.00,,,0.00,Wunderground v.1.15,2013-07-26 05:10:00,
2013-07-26 00:20:00,81.1,69.5,29.95,ESE,120,1.0,2.0,68,0.00,,,0.00,Wunderground v.1.15,2013-07-26 05:20:00,
2013-07-26 00:25:00,80.9,69.3,29.95,ESE,120,1.0,2.0,68,0.00,,,0.00,Wunderground v.1.15,2013-07-26 05:25:00,
2013-07-26 00:35:00,80.7,69.6,29.95,ESE,120,1.0,1.0,69,0.00,,,0.00,Wunderground v.1.15,2013-07-26 05:35:00,
2013-07-26 00:40:00,80.5,69.4,29.95,ESE,121,2.0,2.0,69,0.00,,,0.00,Wunderground v.1.15,2013-07-26 05:40:00,
2013-07-26 00:50:00,80.3,68.8,29.94,SE,124,3.0,3.0,68,0.00,,,0.00,Wunderground v.1.15,2013-07-26 05:50:00,
2013-07-26 00:55:00,80.1,68.6,29.94,SE,128,3.0,4.0,68,0.00,,,0.00,Wunderground v.1.15,2013-07-26 05:55:00,
2013-07-26 01:05:00,79.9,68.4,29.94,SE,128,3.0,3.0,68,0.00,,,0.00,Wunderground v.1.15,2013-07-26 06:05:00,
2013-07-26 01:10:00,79.6,68.5,29.93,SE,133,4.0,4.0,69,0.00,,,0.00,Wunderground v.1.15,2013-07-26 06:10:00,
2013-07-26 01:20:00,79.4,68.8,29.93,SE,134,3.0,3.0,70,0.00,,,0.00,Wunderground v.1.15,2013-07-26 06:20:00,
2013-07-26 01:25:00,79.2,69.0,29.93,SE,134,3.0,7.0,71,0.00,,,0.00,Wunderground v.1.15,2013-07-26 06:25:00,
2013-07-26 01:35:00,78.8,68.6,29.93,SE,134,2.0,2.0,71,0.00,,,0.00,Wunderground v.1.15,2013-07-26 06:35:00,
2013-07-26 01:40:00,78.6,68.8,29.93,SE,134,2.0,2.0,72,0.00,,,0.00,Wunderground v.1.15,2013-07-26 06:40:00,
2013-07-26 01:50:00,78.3,68.9,29.93,SE,136,3.0,4.0,73,0.00,,,0.00,Wunderground v.1.15,2013-07-26 06:50:00,
2013-07-26 01:55:00,78.3,68.9,29.93,SE,136,2.0,4.0,73,0.00,,,0.00,Wunderground v.1.15,2013-07-26 06:55:00,
2013-07-26 02:05:00,77.9,68.9,29.93,SE,136,2.0,3.0,74,0.00,,,0.00,Wunderground v.1.15,2013-07-26 07:05:00,
2013-07-26 02:10:00,77.7,68.7,29.93,SE,141,2.0,4.0,74,0.00,,,0.00,Wunderground v.1.15,2013-07-26 07:10:00,
2013-07-26 02:20:00,77.6,68.7,29.92,SE,141,2.0,2.0,74,0.00,,,0.00,Wunderground v.1.15,2013-07-26 07:20:00,
2013-07-26 02:25:00,77.6,69.0,29.92,SE,141,3.0,3.0,75,0.00,,,0.00,Wunderground v.1.15,2013-07-26 07:25:00,
2013-07-26 02:34:00,77.4,68.5,29.93,SSE,148,5.0,6.0,74,0.00,,,0.00,Wunderground v.1.15,2013-07-26 07:34:00,
2013-07-26 02:40:00,77.2,68.7,29.93,SSE,148,4.0,4.0,75,0.00,,,0.00,Wunderground v.1.15,2013-07-26 07:40:00,
2013-07-26 02:50:00,77.0,68.9,29.93,SSE,150,4.0,4.0,76,0.00,,,0.00,Wunderground v.1.15,2013-07-26 07:50:00,
2013-07-26 02:55:00,77.0,68.9,29.93,SSE,150,4.0,4.0,76,0.00,,,0.00,Wunderground v.1.15,2013-07-26 07:55:00,
2013-07-26 03:05:00,76.8,69.0,29.92,SSE,150,3.0,3.0,77,0.00,,,0.00,Wunderground v.1.15,2013-07-26 08:05:00,
2013-07-26 03:10:00,76.7,68.9,29.92,SSE,150,3.0,3.0,77,0.00,,,0.00,Wunderground v.1.15,2013-07-26 08:10:00,
2013-07-26 03:20:00,76.5,69.1,29.92,SSE,150,3.0,6.0,78,0.00,,,0.00,Wunderground v.1.15,2013-07-26 08:20:00,
2013-07-26 03:25:00,76.3,68.9,29.92,SSE,150,2.0,6.0,78,0.00,,,0.00,Wunderground v.1.15,2013-07-26 08:25:00,
2013-07-26 03:35:00,76.1,69.1,29.91,SSE,150,4.0,4.0,79,0.00,,,0.00,Wunderground v.1.15,2013-07-26 08:35:00,
2013-07-26 03:40:00,76.0,69.4,29.91,SSE,151,4.0,4.0,80,0.00,,,0.00,Wunderground v.1.15,2013-07-26 08:40:00,
2013-07-26 03:50:00,75.8,69.2,29.92,SSE,152,4.0,7.0,80,0.00,,,0.00,Wunderground v.1.15,2013-07-26 08:50:00,
2013-07-26 03:55:00,75.8,69.2,29.92,SSE,152,4.0,7.0,80,0.00,,,0.00,Wunderground v.1.15,2013-07-26 08:55:00,
2013-07-26 04:05:00,75.8,69.6,29.92,SSE,152,2.0,5.0,81,0.00,,,0.00,Wunderground v.1.15,2013-07-26 09:05:00,
2013-07-26 04:10:00,75.6,69.4,29.92,SSE,152,3.0,3.0,81,0.00,,,0.00,Wunderground v.1.15,2013-07-26 09:10:00,
2013-07-26 04:20:00,75.6,69.4,29.92,SSE,152,4.0,5.0,81,0.00,,,0.00,Wunderground v.1.15,2013-07-26 09:20:00,
2013-07-26 04:25:00,75.4,69.2,29.92,SSE,152,3.0,5.0,81,0.00,,,0.00,Wunderground v.1.15,2013-07-26 09:25:00,
2013-07-26 04:35:00,75.4,69.5,29.93,SSE,152,4.0,11.0,82,0.00,,,0.00,Wunderground v.1.15,2013-07-26 09:35:00,
2013-07-26 04:40:00,75.3,69.4,29.93,SSE,154,4.0,4.0,82,0.00,,,0.00,Wunderground v.1.15,2013-07-26 09:40:00,
2013-07-26 04:50:00,75.3,69.1,29.93,SSE,154,4.0,4.0,81,0.00,,,0.00,Wunderground v.1.15,2013-07-26 09:50:00,
2013-07-26 04:55:00,75.3,69.1,29.92,SSE,154,4.0,4.0,81,0.00,,,0.00,Wunderground v.1.15,2013-07-26 09:55:00,
2013-07-26 05:04:00,75.3,69.1,29.93,SSE,154,4.0,7.0,81,0.00,,,0.00,Wunderground v.1.15,2013-07-26 10:04:00,
2013-07-26 05:10:00,75.3,69.4,29.93,SSE,155,4.0,6.0,82,0.00,,,0.00,Wunderground v.1.15,2013-07-26 10:10:00,
2013-07-26 05:20:00,75.1,69.2,29.92,SSE,155,4.0,4.0,82,0.00,,,0.00,Wunderground v.1.15,2013-07-26 10:20:00,
2013-07-26 05:25:00,75.1,69.6,29.92,SSE,155,4.0,6.0,83,0.00,,,0.00,Wunderground v.1.15,2013-07-26 10:25:00,
2013-07-26 05:35:00,74.9,69.4,29.92,SSE,155,3.0,6.0,83,0.00,,,0.00,Wunderground v.1.15,2013-07-26 10:35:00,
2013-07-26 05:40:00,74.7,69.5,29.92,SSE,155,4.0,4.0,84,0.00,,,0.00,Wunderground v.1.15,2013-07-26 10:40:00,
2013-07-26 05:50:00,74.6,69.4,29.92,SSE,155,3.0,3.0,84,0.00,,,0.00,Wunderground v.1.15,2013-07-26 10:50:00,
2013-07-26 05:55:00,74.6,69.8,29.92,SSE,155,3.0,5.0,85,0.00,,,0.00,Wunderground v.1.15,2013-07-26 10:55:00,
2013-07-26 06:05:00,74.4,69.6,29.92,SSE,155,4.0,4.0,85,0.00,,,0.00,Wunderground v.1.15,2013-07-26 11:05:00,
2013-07-26 06:10:00,74.4,69.6,29.93,SSE,155,3.0,3.0,85,0.00,,,0.00,Wunderground v.1.15,2013-07-26 11:10:00,
2013-07-26 06:20:00,74.4,69.9,29.93,SSE,155,2.0,2.0,86,0.00,,,0.00,Wunderground v.1.15,2013-07-26 11:20:00,
2013-07-26 06:25:00,74.2,69.7,29.94,SSE,155,2.0,5.0,86,0.00,,,0.00,Wunderground v.1.15,2013-07-26 11:25:00,
2013-07-26 06:34:00,74.2,69.7,29.94,SSE,155,1.0,6.0,86,0.00,,,0.00,Wunderground v.1.15,2013-07-26 11:34:00,
2013-07-26 06:40:00,74.0,69.5,29.94,SSE,155,1.0,3.0,86,0.00,,,0.00,Wunderground v.1.15,2013-07-26 11:40:00,
2013-07-26 06:50:00,74.0,69.9,29.94,SSE,155,1.0,1.0,87,0.00,,,0.00,Wunderground v.1.15,2013-07-26 11:50:00,
2013-07-26 06:55:00,73.9,69.8,29.94,SSE,155,0.0,5.0,87,0.00,,,0.00,Wunderground v.1.15,2013-07-26 11:55:00,
2013-07-26 07:05:00,73.9,70.1,29.94,SSE,155,1.0,1.0,88,0.00,,,0.00,Wunderground v.1.15,2013-07-26 12:05:00,
2013-07-26 07:10:00,73.9,70.1,29.94,SSE,155,1.0,1.0,88,0.00,,,0.00,Wunderground v.1.15,2013-07-26 12:10:00,
2013-07-26 07:20:00,74.0,70.6,29.94,SSE,155,2.0,2.0,89,0.00,,,0.00,Wunderground v.1.15,2013-07-26 12:20:00,
2013-07-26 07:25:00,74.0,70.6,29.94,SSE,155,3.0,3.0,89,0.00,,,0.00,Wunderground v.1.15,2013-07-26 12:25:00,
2013-07-26 07:34:00,74.0,70.6,29.94,SSE,155,2.0,3.0,89,0.00,,,0.00,Wunderground v.1.15,2013-07-26 12:34:00,
2013-07-26 07:40:00,74.2,70.7,29.94,SSE,155,2.0,2.0,89,0.00,,,0.00,Wunderground v.1.15,2013-07-26 12:40:00,
2013-07-26 07:50:00,74.2,70.7,29.94,SSE,155,2.0,6.0,89,0.00,,,0.00,Wunderground v.1.15,2013-07-26 12:50:00,
2013-07-26 07:55:00,74.4,70.9,29.94,SSE,155,3.0,6.0,89,0.00,,,0.00,Wunderground v.1.15,2013-07-26 12:55:00,
2013-07-26 08:05:00,74.6,70.8,29.95,SSE,161,4.0,4.0,88,0.00,,,0.00,Wunderground v.1.15,2013-07-26 13:05:00,
2013-07-26 08:10:00,74.7,70.9,29.95,SSE,165,4.0,4.0,88,0.00,,,0.00,Wunderground v.1.15,2013-07-26 13:10:00,
2013-07-26 08:20:00,75.1,71.0,29.95,South,169,4.0,8.0,87,0.00,,,0.00,Wunderground v.1.15,2013-07-26 13:20:00,
2013-07-26 08:25:00,75.3,71.2,29.95,South,171,5.0,8.0,87,0.00,,,0.00,Wunderground v.1.15,2013-07-26 13:25:00,
2013-07-26 08:35:00,75.8,71.0,29.95,South,171,5.0,8.0,85,0.00,,,0.00,Wunderground v.1.15,2013-07-26 13:35:00,
2013-07-26 08:40:00,76.1,71.3,29.95,South,171,3.0,3.0,85,0.00,,,0.00,Wunderground v.1.15,2013-07-26 13:40:00,
2013-07-26 08:50:00,76.5,70.9,29.95,South,171,2.0,2.0,83,0.00,,,0.00,Wunderground v.1.15,2013-07-26 13:50:00,
2013-07-26 08:55:00,77.0,71.1,29.95,South,171,1.0,2.0,82,0.00,,,0.00,Wunderground v.1.15,2013-07-26 13:55:00,
2013-07-26 09:05:00,77.6,70.6,29.95,South,171,4.0,5.0,79,0.00,,,0.00,Wunderground v.1.15,2013-07-26 14:05:00,
2013-07-26 09:10:00,77.7,70.3,29.95,South,172,4.0,4.0,78,0.00,,,0.00,Wunderground v.1.15,2013-07-26 14:10:00,
2013-07-26 09:20:00,78.3,70.9,29.95,South,172,2.0,2.0,78,0.00,,,0.00,Wunderground v.1.15,2013-07-26 14:20:00,
2013-07-26 09:25:00,78.8,71.4,29.95,South,172,3.0,5.0,78,0.00,,,0.00,Wunderground v.1.15,2013-07-26 14:25:00,
2013-07-26 09:35:00,79.4,71.2,29.95,South,172,4.0,4.0,76,0.00,,,0.00,Wunderground v.1.15,2013-07-26 14:35:00,
2013-07-26 09:40:00,79.8,71.2,29.95,South,172,4.0,4.0,75,0.00,,,0.00,Wunderground v.1.15,2013-07-26 14:40:00,
2013-07-26 09:50:00,80.5,71.0,29.96,South,172,4.0,4.0,73,0.00,,,0.00,Wunderground v.1.15,2013-07-26 14:50:00,
2013-07-26 09:55:00,80.9,71.0,29.96,South,172,3.0,5.0,72,0.00,,,0.00,Wunderground v.1.15,2013-07-26 14:55:00,
2013-07-26 10:05:00,81.6,70.0,29.96,South,174,4.0,6.0,68,0.00,,,0.00,Wunderground v.1.15,2013-07-26 15:05:00,
2013-07-26 10:10:00,82.0,70.8,29.96,South,174,4.0,4.0,69,0.00,,,0.00,Wunderground v.1.15,2013-07-26 15:10:00,
2013-07-26 10:20:00,83.0,70.5,29.96,South,174,3.0,6.0,66,0.00,,,0.00,Wunderground v.1.15,2013-07-26 15:20:00,
2013-07-26 10:25:00,83.6,70.6,29.95,South,174,3.0,6.0,65,0.00,,,0.00,Wunderground v.1.15,2013-07-26 15:25:00,
2013-07-26 10:35:00,84.5,70.5,29.95,South,174,3.0,5.0,63,0.00,,,0.00,Wunderground v.1.15,2013-07-26 15:35:00,
2013-07-26 10:40:00,84.9,70.9,29.94,South,174,2.0,2.0,63,0.00,,,0.00,Wunderground v.1.15,2013-07-26 15:40:00,
2013-07-26 10:50:00,85.7,70.2,29.94,South,174,2.0,3.0,60,0.00,,,0.00,Wunderground v.1.15,2013-07-26 15:50:00,
2013-07-26 10:55:00,85.9,69.9,29.95,South,175,2.0,3.0,59,0.00,,,0.00,Wunderground v.1.15,2013-07-26 15:55:00,
2013-07-26 11:05:00,86.7,70.7,29.95,South,175,1.0,5.0,59,0.00,,,0.00,Wunderground v.1.15,2013-07-26 16:05:00,
2013-07-26 11:10:00,87.0,70.9,29.95,South,175,1.0,6.0,59,0.00,,,0.00,Wunderground v.1.15,2013-07-26 16:10:00,
2013-07-26 11:20:00,87.2,70.1,29.95,South,175,2.0,2.0,57,0.00,,,0.00,Wunderground v.1.15,2013-07-26 16:20:00,
2013-07-26 11:25:00,87.2,70.6,29.95,South,175,2.0,2.0,58,0.00,,,0.00,Wunderground v.1.15,2013-07-26 16:25:00,
2013-07-26 11:35:00,87.2,71.1,29.95,South,175,1.0,3.0,59,0.00,,,0.00,Wunderground v.1.15,2013-07-26 16:35:00,
2013-07-26 11:40:00,87.4,70.3,29.95,South,174,2.0,2.0,57,0.00,,,0.00,Wunderground v.1.15,2013-07-26 16:40:00,
2013-07-26 11:50:00,87.8,71.2,29.94,South,174,2.0,2.0,58,0.00,,,0.00,Wunderground v.1.15,2013-07-26 16:50:00,
2013-07-26 11:55:00,88.4,69.6,29.94,South,175,2.0,6.0,54,0.00,,,0.00,Wunderground v.1.15,2013-07-26 16:55:00,
2013-07-26 12:05:00,89.5,70.1,29.94,South,175,2.0,2.0,53,0.00,,,0.00,Wunderground v.1.15,2013-07-26 17:05:00,
2013-07-26 12:10:00,89.9,70.5,29.94,South,175,2.0,2.0,53,0.00,,,0.00,Wunderground v.1.15,2013-07-26 17:10:00,
2013-07-26 12:20:00,89.9,70.5,29.93,South,175,1.0,2.0,53,0.00,,,0.00,Wunderground v.1.15,2013-07-26 17:20:00,
2013-07-26 12:25:00,90.5,69.9,29.93,South,175,1.0,2.0,51,0.00,,,0.00,Wunderground v.1.15,2013-07-26 17:25:00,
2013-07-26 12:35:00,91.2,71.1,29.93,South,174,1.0,5.0,52,0.00,,,0.00,Wunderground v.1.15,2013-07-26 17:35:00,
2013-07-26 12:40:00,91.6,69.7,29.93,South,175,3.0,3.0,49,0.00,,,0.00,Wunderground v.1.15,2013-07-26 17:40:00,
2013-07-26 12:50:00,92.3,69.2,29.92,South,175,3.0,5.0,47,0.00,,,0.00,Wunderground v.1.15,2013-07-26 17:50:00,
2013-07-26 12:55:00,92.7,69.5,29.92,South,175,2.0,5.0,47,0.00,,,0.00,Wunderground v.1.15,2013-07-26 17:55:00,
2013-07-26 13:05:00,93.6,69.1,29.92,South,174,2.0,2.0,45,0.00,,,0.00,Wunderground v.1.15,2013-07-26 18:05:00,
2013-07-26 13:10:00,94.3,69.0,29.91,South,174,2.0,2.0,44,0.00,,,0.00,Wunderground v.1.15,2013-07-26 18:10:00,
2013-07-26 13:20:00,94.5,69.2,29.91,South,171,2.0,2.0,44,0.00,,,0.00,Wunderground v.1.15,2013-07-26 18:20:00,
2013-07-26 13:25:00,94.5,69.2,29.90,South,171,2.0,2.0,44,0.00,,,0.00,Wunderground v.1.15,2013-07-26 18:25:00,
2013-07-26 13:35:00,94.9,68.9,29.90,South,171,1.0,2.0,43,0.00,,,0.00,Wunderground v.1.15,2013-07-26 18:35:00,
2013-07-26 13:40:00,94.9,68.9,29.90,South,171,1.0,6.0,43,0.00,,,0.00,Wunderground v.1.15,2013-07-26 18:40:00,
2013-07-26 13:50:00,94.9,70.2,29.90,South,171,1.0,2.0,45,0.00,,,0.00,Wunderground v.1.15,2013-07-26 18:50:00,
2013-07-26 13:55:00,94.9,69.6,29.90,SSE,168,2.0,7.0,44,0.00,,,0.00,Wunderground v.1.15,2013-07-26 18:55:00,
2013-07-26 14:05:00,95.1,68.4,29.89,SSE,168,3.0,3.0,42,0.00,,,0.00,Wunderground v.1.15,2013-07-26 19:05:00,
2013-07-26 14:10:00,95.9,69.1,29.89,SSE,168,2.0,4.0,42,0.00,,,0.00,Wunderground v.1.15,2013-07-26 19:10:00,
2013-07-26 14:20:00,96.8,68.5,29.88,SSE,168,2.0,2.0,40,0.00,,,0.00,Wunderground v.1.15,2013-07-26 19:20:00,
2013-07-26 14:25:00,96.8,69.2,29.88,SSE,167,2.0,2.0,41,0.00,,,0.00,Wunderground v.1.15,2013-07-26 19:25:00,
2013-07-26 14:35:00,97.3,68.9,29.87,SSE,167,2.0,2.0,40,0.00,,,0.00,Wunderground v.1.15,2013-07-26 19:35:00,
2013-07-26 14:40:00,97.8,67.1,29.88,SSE,168,2.0,2.0,37,0.00,,,0.00,Wunderground v.1.15,2013-07-26 19:40:00,
2013-07-26 14:50:00,98.2,67.5,29.87,SSE,168,1.0,1.0,37,0.00,,,0.00,Wunderground v.1.15,2013-07-26 19:50:00,
2013-07-26 14:55:00,98.2,66.7,29.87,SSE,168,1.0,1.0,36,0.00,,,0.00,Wunderground v.1.15,2013-07-26 19:55:00,
2013-07-26 15:05:00,98.5,68.5,29.87,South,169,1.0,1.0,38,0.00,,,0.00,Wunderground v.1.15,2013-07-26 20:05:00,
2013-07-26 15:10:00,98.2,67.5,29.87,SSE,152,2.0,9.0,37,0.00,,,0.00,Wunderground v.1.15,2013-07-26 20:10:00,
2013-07-26 15:20:00,97.8,66.3,29.87,SSE,154,2.0,2.0,36,0.00,,,0.00,Wunderground v.1.15,2013-07-26 20:20:00,
2013-07-26 15:25:00,98.2,65.0,29.86,SSE,154,1.0,2.0,34,0.00,,,0.00,Wunderground v.1.15,2013-07-26 20:25:00,
2013-07-26 15:35:00,99.0,67.4,29.86,SSE,154,1.0,1.0,36,0.00,,,0.00,Wunderground v.1.15,2013-07-26 20:35:00,
2013-07-26 15:40:00,99.0,66.6,29.85,SSE,154,1.0,1.0,35,0.00,,,0.00,Wunderground v.1.15,2013-07-26 20:40:00,
2013-07-26 15:50:00,99.0,66.6,29.85,SSE,155,2.0,2.0,35,0.00,,,0.00,Wunderground v.1.15,2013-07-26 20:50:00,
2013-07-26 15:55:00,99.0,65.7,29.85,SSE,155,2.0,2.0,34,0.00,,,0.00,Wunderground v.1.15,2013-07-26 20:55:00,
2013-07-26 16:05:00,99.0,67.4,29.85,SSE,155,1.0,1.0,36,0.00,,,0.00,Wunderground v.1.15,2013-07-26 21:05:00,
2013-07-26 16:10:00,98.7,67.1,29.84,SSE,155,1.0,1.0,36,0.00,,,0.00,Wunderground v.1.15,2013-07-26 21:10:00,
2013-07-26 16:20:00,98.7,66.3,29.84,SSE,155,1.0,5.0,35,0.00,,,0.00,Wunderground v.1.15,2013-07-26 21:20:00,
2013-07-26 16:25:00,98.5,65.3,29.84,SSE,155,2.0,5.0,34,0.00,,,0.00,Wunderground v.1.15,2013-07-26 21:25:00,
2013-07-26 16:35:00,98.0,65.7,29.83,SSE,160,2.0,3.0,35,0.00,,,0.00,Wunderground v.1.15,2013-07-26 21:35:00,
2013-07-26 16:40:00,97.8,65.5,29.83,SSE,160,1.0,1.0,35,0.00,,,0.00,Wunderground v.1.15,2013-07-26 21:40:00,
2013-07-26 16:50:00,97.5,65.2,29.83,SSE,160,1.0,1.0,35,0.00,,,0.00,Wunderground v.1.15,2013-07-26 21:50:00,
2013-07-26 16:55:00,97.3,65.1,29.83,SSE,160,1.0,1.0,35,0.00,,,0.00,Wunderground v.1.15,2013-07-26 21:55:00,
2013-07-26 17:05:00,96.8,64.6,29.83,SSE,160,1.0,4.0,35,0.00,,,0.00,Wunderground v.1.15,2013-07-26 22:05:00,
2013-07-26 17:10:00,96.1,64.8,29.83,SSE,160,1.0,1.0,36,0.00,,,0.00,Wunderground v.1.15,2013-07-26 22:10:00,
2013-07-26 17:20:00,95.6,65.2,29.82,SSE,160,0.0,0.0,37,0.00,,,0.00,Wunderground v.1.15,2013-07-26 22:20:00,
2013-07-26 17:25:00,95.4,65.0,29.83,SSE,160,1.0,1.0,37,0.00,,,0.00,Wunderground v.1.15,2013-07-26 22:25:00,
2013-07-26 17:35:00,94.9,64.6,29.82,SSE,160,2.0,4.0,37,0.00,,,0.00,Wunderground v.1.15,2013-07-26 22:35:00,
2013-07-26 17:40:00,94.7,64.4,29.82,SSE,160,2.0,2.0,37,0.00,,,0.00,Wunderground v.1.15,2013-07-26 22:40:00,
2013-07-26 17:50:00,94.5,64.2,29.82,SSE,160,2.0,2.0,37,0.00,,,0.00,Wunderground v.1.15,2013-07-26 22:50:00,
2013-07-26 17:55:00,94.3,64.0,29.81,SSE,157,2.0,4.0,37,0.00,,,0.00,Wunderground v.1.15,2013-07-26 22:55:00,
2013-07-26 18:04:00,94.0,65.3,29.81,SSE,155,1.0,5.0,39,0.00,,,0.00,Wunderground v.1.15,2013-07-26 23:04:00,
2013-07-26 18:10:00,94.0,65.3,29.81,SSE,152,0.0,1.0,39,0.00,,,0.00,Wunderground v.1.15,2013-07-26 23:10:00,
2013-07-26 18:20:00,93.8,65.1,29.80,SSE,152,1.0,2.0,39,0.00,,,0.00,Wunderground v.1.15,2013-07-26 23:20:00,
2013-07-26 18:25:00,93.8,65.1,29.80,SSE,152,1.0,2.0,39,0.00,,,0.00,Wunderground v.1.15,2013-07-26 23:25:00,
2013-07-26 18:35:00,93.6,66.4,29.80,SSE,147,2.0,3.0,41,0.00,,,0.00,Wunderground v.1.15,2013-07-26 23:35:00,
2013-07-26 18:40:00,93.2,66.0,29.80,SE,145,2.0,2.0,41,0.00,,,0.00,Wunderground v.1.15,2013-07-26 23:40:00,
2013-07-26 18:50:00,92.9,65.7,29.80,SSE,147,2.0,2.0,41,0.00,,,0.00,Wunderground v.1.15,2013-07-26 23:50:00,
2013-07-26 18:55:00,92.7,66.2,29.80,SSE,147,1.0,6.0,42,0.00,,,0.00,Wunderground v.1.15,2013-07-26 23:55:00,
2013-07-26 19:05:00,92.5,65.4,29.80,SSE,147,1.0,1.0,41,0.00,,,0.00,Wunderground v.1.15,2013-07-27 00:05:00,
2013-07-26 19:10:00,92.3,65.2,29.80,SSE,147,0.0,0.0,41,0.00,,,0.00,Wunderground v.1.15,2013-07-27 00:10:00,
2013-07-26 19:20:00,92.1,65.7,29.80,SSE,147,1.0,1.0,42,0.00,,,0.00,Wunderground v.1.15,2013-07-27 00:20:00,
2013-07-26 19:25:00,91.8,64.7,29.80,SSE,147,1.0,1.0,41,0.00,,,0.00,Wunderground v.1.15,2013-07-27 00:25:00,
2013-07-26 19:35:00,91.6,65.3,29.80,SSE,147,1.0,5.0,42,0.00,,,0.00,Wunderground v.1.15,2013-07-27 00:35:00,
2013-07-26 19:40:00,91.6,65.3,29.80,SSE,147,1.0,1.0,42,0.00,,,0.00,Wunderground v.1.15,2013-07-27 00:40:00,
2013-07-26 19:50:00,91.4,64.4,29.80,SSE,147,1.0,2.0,41,0.00,,,0.00,Wunderground v.1.15,2013-07-27 00:50:00,
2013-07-26 19:55:00,91.2,64.9,29.80,SSE,147,1.0,2.0,42,0.00,,,0.00,Wunderground v.1.15,2013-07-27 00:55:00,
2013-07-26 20:04:00,90.7,65.1,29.80,SSE,147,1.0,1.0,43,0.00,,,0.00,Wunderground v.1.15,2013-07-27 01:04:00,
2013-07-26 20:10:00,90.5,64.3,29.80,SSE,147,1.0,1.0,42,0.00,,,0.00,Wunderground v.1.15,2013-07-27 01:10:00,
2013-07-26 20:20:00,90.1,63.9,29.79,SSE,147,0.0,0.0,42,0.00,,,0.00,Wunderground v.1.15,2013-07-27 01:20:00,
2013-07-26 20:25:00,89.7,64.2,29.79,SSE,147,0.0,0.0,43,0.00,,,0.00,Wunderground v.1.15,2013-07-27 01:25:00,
2013-07-26 20:35:00,89.3,64.5,29.80,SSE,147,0.0,0.0,44,0.00,,,0.00,Wunderground v.1.15,2013-07-27 01:35:00,
2013-07-26 20:40:00,88.8,64.7,29.80,SSE,147,0.0,0.0,45,0.00,,,0.00,Wunderground v.1.15,2013-07-27 01:40:00,
2013-07-26 20:50:00,88.2,64.8,29.81,SSE,147,0.0,0.0,46,0.00,,,0.00,Wunderground v.1.15,2013-07-27 01:50:00,
2013-07-26 20:55:00,88.0,65.2,29.81,SSE,147,0.0,0.0,47,0.00,,,0.00,Wunderground v.1.15,2013-07-27 01:55:00,
2013-07-26 21:05:00,87.4,65.9,29.81,SSE,147,0.0,0.0,49,0.00,,,0.00,Wunderground v.1.15,2013-07-27 02:05:00,
2013-07-26 21:10:00,87.2,66.3,29.81,SSE,147,0.0,0.0,50,0.00,,,0.00,Wunderground v.1.15,2013-07-27 02:10:00,
2013-07-26 21:20:00,86.5,66.2,29.81,SSE,147,0.0,0.0,51,0.00,,,0.00,Wunderground v.1.15,2013-07-27 02:20:00,
2013-07-26 21:25:00,86.5,66.8,29.81,SSE,147,0.0,0.0,52,0.00,,,0.00,Wunderground v.1.15,2013-07-27 02:25:00,
2013-07-26 21:35:00,86.3,67.2,29.81,SSE,147,1.0,1.0,53,0.00,,,0.00,Wunderground v.1.15,2013-07-27 02:35:00,
2013-07-26 21:40:00,86.1,67.0,29.81,SSE,147,1.0,1.0,53,0.00,,,0.00,Wunderground v.1.15,2013-07-27 02:40:00,
2013-07-26 21:50:00,86.1,67.5,29.82,SSE,147,1.0,1.0,54,0.00,,,0.00,Wunderground v.1.15,2013-07-27 02:50:00,
2013-07-26 21:55:00,86.1,67.5,29.82,SSE,147,1.0,2.0,54,0.00,,,0.00,Wunderground v.1.15,2013-07-27 02:55:00,
2013-07-26 22:05:00,86.1,67.5,29.82,SSE,147,2.0,2.0,54,0.00,,,0.00,Wunderground v.1.15,2013-07-27 03:05:00,
2013-07-26 22:10:00,86.1,68.0,29.82,SSE,147,1.0,4.0,55,0.00,,,0.00,Wunderground v.1.15,2013-07-27 03:10:00,
2013-07-26 22:20:00,85.9,68.4,29.82,SSE,147,2.0,6.0,56,0.00,,,0.00,Wunderground v.1.15,2013-07-27 03:20:00,
2013-07-26 22:25:00,85.9,69.9,29.82,SSE,152,4.0,10.0,59,0.00,,,0.00,Wunderground v.1.15,2013-07-27 03:25:00,
2013-07-26 22:34:00,85.7,72.6,29.82,SSE,157,6.0,7.0,65,0.00,,,0.00,Wunderground v.1.15,2013-07-27 03:34:00,
2013-07-26 22:40:00,85.3,73.1,29.82,SSE,162,7.0,10.0,67,0.00,,,0.00,Wunderground v.1.15,2013-07-27 03:40:00,
2013-07-26 22:50:00,84.7,73.4,29.83,SSE,152,6.0,6.0,69,0.00,,,0.00,Wunderground v.1.15,2013-07-27 03:50:00,
2013-07-26 22:55:00,84.5,73.6,29.83,SSE,162,6.0,6.0,70,0.00,,,0.00,Wunderground v.1.15,2013-07-27 03:55:00,
2013-07-26 23:05:00,84.1,73.7,29.83,SSE,158,4.0,7.0,71,0.00,,,0.00,Wunderground v.1.15,2013-07-27 04:05:00,
2013-07-26 23:10:00,84.0,74.0,29.83,South,175,4.0,6.0,72,0.00,,,0.00,Wunderground v.1.15,2013-07-27 04:10:00,
2013-07-26 23:20:00,83.4,73.8,29.83,South,181,6.0,6.0,73,0.00,,,0.00,Wunderground v.1.15,2013-07-27 04:20:00,
2013-07-26 23:25:00,83.4,73.8,29.83,SSW,206,5.0,6.0,73,0.00,,,0.00,Wunderground v.1.15,2013-07-27 04:25:00,
2013-07-26 23:30:00,83.2,73.6,29.83,SSE,168,5.0,7.0,73,0.00,,,0.00,Wunderground v.1.15,2013-07-27 04:30:00,
2013-07-26 23:35:00,83.0,73.4,29.84,SSE,168,4.0,7.0,73,0.00,,,0.00,Wunderground v.1.15,2013-07-27 04:35:00,
2013-07-26 23:40:00,83.0,73.4,29.87,South,171,2.0,2.0,73,0.00,,,0.00,Wunderground v.1.15,2013-07-27 04:40:00,
2013-07-26 23:50:00,83.0,73.9,29.88,South,169,1.0,1.0,74,0.00,,,0.00,Wunderground v.1.15,2013-07-27 04:50:00,
2013-07-26 23:55:00,83.0,73.4,29.87,SSE,168,1.0,1.0,73,0.00,,,0.00,Wunderground v.1.15,2013-07-27 04:55:00,